Tracking 32941 objects as of 15-Jan-2026
HD Live streaming from Space Station
objects crossing your sky now

KUIPER-00019

Track KUIPER-00019 now!
10-day predictions
KUIPER-00019 is classified as:


NORAD ID: 63734
Int'l Code: 2025-088L
Perigee: 635.2 km
Apogee: 638.3 km
Inclination: 51.9 °
Period: 97.3 minutes
Semi major axis: 7007 km
RCS: Unknown
Launch date: April 28, 2025
Source: United States (US)
Launch site: AIR FORCE EASTERN TEST RANGE (AFETR)
Your satellite tracking list
Your tracking list is empty




NASA's NSSDC Master Catalog

Two Line Element Set (TLE):
1 63734U 25088L   26014.90226358 -.00006739  00000-0 -85619-3 0  9993
2 63734  51.9005 336.9433 0002241 345.1901  14.8995 14.79914378 39548
Source of the keplerian elements: AFSPC